Theta_e
287 286 286 285 284 283 282 282 282 281 281 281 281 281 281 280 280 279 279 278 279 279
286 285 285 283 283 282 282 282 281 280 280 280 280 280 280 279 278 278 278 277 278 278
284 284 283 283 282 281 281 281 280 279 279 279 279 279 278 277 277 277 277 277 277 277
283 283 283 282 281 280 280 280 279 279 279 278 278 277 277 276 276 276 276 276 276 276
283 283 282 281 280 280 279 279 279 279 278 278 277 277 276 276 276 276 276 276 275 275
282 281 281 280 280 279 278 278 278 278 277 277 277 276 276 276 276 275 275 275 275 275
281 281 281 280 279 279 278 277 277 277 277 276 276 276 276 276 275 275 275 276 275 275
282 281 280 280 279 278 278 277 277 276 275 275 275 275 275 276 275 275 275 275 276 275
281 281 280 280 279 278 277 277 276 275 274 273 275 279 280 277 276 276 275 274 274 275
282 281 281 281 279 278 277 275 275 274 274 274 274 280 281 280 276 275 275 274 275 275
281 281 280 279 279 277 275 275 274 274 274 273 274 280 281 280 276 275 274 274 274 274
282 281 280 279 278 277 276 274 274 273 272 272 272 280 281 280 275 274 274 274 274 274
283 282 280 280 278 277 276 276 274 274 272 271 270 278 280 279 274 268 272 272 274 276
281 281 281 279 276 273 274 273 272 271 271 270 270 270 279 280 275 272 270 270 271 273
Wind_Speed
11 8 8 8 8 6 7 6 6 6 6 6 7 6 6 4 4 5 5 6 5 3
8 9 8 8 7 7 7 6 6 6 7 7 7 6 6 4 5 5 4 4 4 3
9 8 9 9 10 9 7 6 7 7 7 6 6 6 6 5 4 5 2 3 4 3
9 10 9 10 9 9 8 8 7 7 7 6 6 6 6 6 5 5 3 2 3 2
10 10 10 9 9 7 9 7 7 7 7 7 6 6 6 6 4 4 3 2 1 1
10 10 9 8 8 8 8 7 7 7 7 6 6 6 5 5 5 4 3 3 3 3
11 10 10 9 9 9 8 8 7 6 6 6 6 5 5 5 5 4 3 3 4 3
10 10 10 9 9 8 8 7 7 7 6 6 5 4 5 5 4 4 4 4 4 5
12 12 11 10 10 9 8 7 7 7 7 7 4 10 12 7 4 4 4 4 5 5
13 12 12 10 10 10 10 7 8 7 7 7 6 13 13 13 5 5 4 5 5 5
12 12 10 10 12 9 8 10 8 8 7 7 7 14 16 15 5 5 6 6 7 7
14 13 13 14 13 10 9 7 8 5 8 8 6 16 17 13 5 6 7 6 7 8
14 14 14 14 12 8 7 9 7 8 8 9 8 17 17 13 4 5 6 6 8 13
11 13 12 10 7 7 9 6 7 7 6 8 9 9 18 17 6 7 6 6 6 6
Wind_Direction
146 146 145 144 140 125 124 126 126 126 123 119 107 91 87 84 87 86 85 83 68 77
142 143 142 130 122 127 124 131 134 133 122 100 93 102 107 98 90 86 77 80 69 73
140 134 134 133 135 139 141 131 133 124 114 113 113 111 106 103 98 97 71 87 73 53
143 142 138 141 146 152 140 145 141 135 131 131 126 125 119 125 120 117 112 96 81 52
149 144 143 150 157 152 147 147 140 140 137 142 140 141 139 135 143 148 161 150 120 247
153 151 153 156 158 157 145 148 144 144 153 151 155 153 150 157 168 181 181 192 210 238
164 162 164 165 164 161 157 152 156 159 157 163 162 159 168 176 190 186 210 225 229 240
166 163 163 167 171 163 160 166 161 154 161 169 170 174 190 197 190 207 232 242 247 236
169 172 176 174 171 168 165 167 158 169 169 183 183 201 204 188 199 212 223 241 244 241
176 178 181 174 170 175 178 165 178 177 177 193 195 208 211 215 205 212 220 230 244 249
174 181 174 174 185 178 176 184 182 186 190 191 206 214 219 219 205 218 228 234 242 242
178 181 179 188 189 186 179 181 192 182 191 200 208 217 221 220 198 221 237 237 238 238
185 185 188 192 187 178 185 196 188 203 200 202 214 220 224 223 173 214 236 239 246 246
182 189 192 184 174 170 186 173 194 204 201 207 202 213 228 229 210 222 230 230 236 240